Location: Mary A Oil Field
(38.5606°N, 98.9545°W)
Time: 17:52:58
(UTC+00:00)

Cosmos 1758 Rocket - Pass Details

Date: 20 January 2020
Orbit: 603 x 635 km, 82.5° (Epoch: 27 February)

Event Time Altitude Azimuth Distance (km) Brightness Sun altitude
Rises 00:49:40 0° 178° (S) 2,849 7.1 -13.1°
Reaches altitude 10° 00:51:54 10° 175° (S) 1,947 6.2 -13.5°
Maximum altitude 00:56:08 62° 94° (E) 683 3.5 -14.3°
Drops below altitude 10° 01:00:24 10° 14° (NNE) 1,955 5.8 -15.1°
Enters shadow 01:02:05 - 12° (NNE) 2,638 6.5 -15.4°
